{"data":{"norad_id":66919,"intl_designator":"2025-285E","name":"HULIANWANG DIGUI-109","alt_names":[],"object_type":"PAYLOAD","status":"ACTIVE","operator":null,"country":"PRC","launch_date":"2025-12-06","launch_site_code":"WSC","launch_vehicle":null,"mission":null,"orbit_class":"UNKNOWN","rcs_meters":null,"size_class":null,"mass_kg":null,"dimensions":null,"purposes":[],"wikipedia_slug":null,"has_3d_model":false,"image_url":null,"decayed_at":null,"tle_current":{"epoch":"2026-05-24T21:53:02.951808Z","epoch_age_seconds":86191,"freshness":"FRESH","line1":"1 66919U 25285E   26144.91183972 -.00000098  00000+0  56709-4 0  9998","line2":"2 66919  50.0068 229.4328 0001008 214.3364 145.7444 13.29336800 22978","mean_motion":13.293368,"eccentricity":0.0001008,"inclination_deg":50.0068,"raan_deg":229.4328,"arg_perigee_deg":214.3364,"mean_anomaly_deg":145.7444,"bstar":5.6709e-5,"rev_number":2297,"period_min":108.3246924331,"perigee_km":1148.5070391957,"apogee_km":1150.0245636005,"semimajor_km":7527.4028013981,"source":"CELESTRAK","updated_at":"2026-05-25T13:38:06.594380Z"}}}